Pula, Croatia

5:13 AM CET on February 20, 2017 (GMT +0100)
Pula

Weather History for LDPL - December, 2012

Change the Weather History Date:

Wednesday, December 5, 2012

  Actual Average Record
Temperature  
Mean Temperature 43 °F -  
Max Temperature 50 °F - - ()
Min Temperature 36 °F - - ()
Degree Days  
Heating Degree Days 22    
Moisture  
Dew Point 34 °F    
Average Humidity 72    
Maximum Humidity 87    
Minimum Humidity 48    
Precipitation  
Precipitation 0.00 in - - ()
Sea Level Pressure  
Sea Level Pressure 29.59 in    
Wind  
Wind Speed 7 mph ()    
Max Wind Speed 10 mph    
Max Gust Speed -    
Visibility 7.9 miles    
Events      
T = Trace of Precipitation, MM = Missing Value Source: Averaged Metar Reports

Daily Weather History Graph

Daily Weather History Graph

Search for Another Location

Airport or City:

Trip Planner

Search our weather history database for the weather conditions in past years. The results will help you decide how hot, cold, wet, or windy it might be!

Date:

Astronomy

Dec. 05, 2012 Rise Set
Actual Time 7:26 AM CET 4:23 PM CET
Civil Twilight 6:53 AM CET 4:56 PM CET
Nautical Twilight 6:16 AM CET 5:33 PM CET
Astronomical Twilight 5:41 AM CET 6:08 PM CET
Moon 11:07 PM CET (12/5) 11:30 AM CET (12/5)
Length of Visible Light 10h 03m
Length of Day
8h 56m
Waning Gibbous, 62% of the Moon is Illuminated
Dec 5
Waning Gibbous
Dec 6
Last Quarter
Dec 13
New
Dec 20
First Quarter
Dec 28
Full

Hourly Weather History & Observations

Time (CET) Temp. Windchill Dew Point Humidity Pressure Visibility Wind Dir Wind Speed Gust Speed Precip Events Conditions
12:00 AM 42.8 °F 37.5 °F 39.2 °F 87% 29.53 in 6.2 mi NE 9.2 mph - N/A   Mostly Cloudy
12:30 AM 42.8 °F 37.0 °F 37.4 °F 81% 29.50 in 6.2 mi ENE 10.4 mph - N/A   Scattered Clouds
1:00 AM 41 °F - 36 °F 78% 29.54 in 12 mi NE 6.7 mph - -   Partly Cloudy
1:00 AM 41.0 °F 37.1 °F 37.4 °F 87% 29.50 in - NE 5.8 mph - N/A   Clear
1:30 AM 37.4 °F 33.8 °F 33.8 °F 87% 29.53 in - West 4.6 mph - N/A   Clear
2:00 AM 39.2 °F 35.0 °F 35.6 °F 87% 29.53 in - NNW 5.8 mph - N/A   Clear
2:30 AM 39.2 °F 33.6 °F 35.6 °F 87% 29.53 in - North 8.1 mph - N/A   Clear
3:00 AM 39.2 °F 33.6 °F 35.6 °F 87% 29.53 in - North 8.1 mph - N/A   Clear
3:30 AM 39.2 °F 34.2 °F 35.6 °F 87% 29.53 in - North 6.9 mph - N/A   Clear
4:00 AM 39 °F - 35 °F 81% 29.56 in 12 mi Calm Calm - -   Scattered Clouds
4:00 AM 39.2 °F 34.2 °F 35.6 °F 87% 29.53 in - North 6.9 mph - N/A   Clear
4:30 AM 39.2 °F 34.2 °F 35.6 °F 87% 29.53 in - NNE 6.9 mph - N/A   Clear
5:00 AM 38 °F - 34 °F 81% 29.56 in 12 mi NNE 6.7 mph - -   Scattered Clouds
5:00 AM 39.2 °F 35.0 °F 33.8 °F 81% 29.53 in - NNE 5.8 mph - N/A   Clear
5:30 AM 37.4 °F 32.1 °F 33.8 °F 87% 29.53 in - NNE 6.9 mph - N/A   Clear
6:00 AM 38 °F - 34 °F 79% 29.57 in 12 mi North 6.7 mph - -   Partly Cloudy
6:00 AM 37.4 °F 32.1 °F 33.8 °F 87% 29.53 in - North 6.9 mph - N/A   Clear
6:30 AM 35.6 °F 29.9 °F 32.0 °F 87% 29.53 in - North 6.9 mph - N/A   Clear
7:00 AM 38 °F - 33 °F 77% 29.58 in 19 mi NNE 6.7 mph - -   Scattered Clouds
7:00 AM 37.4 °F 32.1 °F 33.8 °F 87% 29.56 in - NNE 6.9 mph - N/A   Clear
7:30 AM 37.4 °F 32.1 °F 33.8 °F 87% 29.56 in - NE 6.9 mph - N/A   Clear
8:00 AM 39.2 °F 33.6 °F 33.8 °F 81% 29.56 in - NE 8.1 mph - N/A   Clear
8:30 AM 39.2 °F 33.6 °F 33.8 °F 81% 29.56 in - NE 8.1 mph - N/A   Clear
9:00 AM 39.2 °F 35.9 °F 33.8 °F 81% 29.59 in - ENE 4.6 mph - N/A   Clear
9:30 AM 44.6 °F 40.7 °F 37.4 °F 76% 29.59 in - NE 6.9 mph - N/A   Clear
10:00 AM 47 °F - 39 °F 64% 29.62 in 25 mi ENE 6.7 mph - -   Scattered Clouds
10:00 AM 46.4 °F 42.9 °F 39.2 °F 76% 29.59 in 6.2 mi ENE 6.9 mph - N/A   Partly Cloudy
10:30 AM 48.2 °F - 39.2 °F 71% 29.59 in - ENE 8.1 mph - N/A   Clear
11:00 AM 48.2 °F - 37.4 °F 66% 29.59 in - East 8.1 mph - N/A   Clear
11:30 AM 50.0 °F - 37.4 °F 62% 29.59 in - East 8.1 mph - N/A   Clear
12:00 PM 50.0 °F - 33.8 °F 54% 29.59 in - East 6.9 mph - N/A   Clear
12:30 PM 50.0 °F - 33.8 °F 54% 29.59 in - ESE 5.8 mph - N/A   Clear
1:00 PM 50 °F - 36 °F 48% 29.61 in 25 mi East 8.9 mph - -   Clear
1:00 PM 50.0 °F - 35.6 °F 58% 29.59 in - East 8.1 mph - N/A   Clear
1:30 PM 50.0 °F - 33.8 °F 54% 29.59 in - East 8.1 mph - N/A   Clear
2:00 PM 50.0 °F - 33.8 °F 54% 29.59 in - East 8.1 mph - N/A   Clear
4:00 PM 44 °F - 34 °F 58% 29.61 in 25 mi NE 6.7 mph - -   Clear
4:00 PM 44.6 °F 41.4 °F 33.8 °F 66% 29.59 in - NE 5.8 mph - N/A   Clear
4:30 PM 41.0 °F 37.1 °F 32.0 °F 70% 29.59 in 6.2 mi ENE 5.8 mph - N/A   Partly Cloudy
5:00 PM 44.6 °F 40.7 °F 30.2 °F 57% 29.59 in 6.2 mi NE 6.9 mph - N/A   Partly Cloudy
5:30 PM 42.8 °F 38.6 °F 30.2 °F 61% 29.59 in 6.2 mi NE 6.9 mph - N/A   Partly Cloudy
6:00 PM 42.8 °F 38.6 °F 30.2 °F 61% 29.62 in 6.2 mi NE 6.9 mph - N/A   Partly Cloudy
6:30 PM 42.8 °F 38.6 °F 30.2 °F 61% 29.62 in 6.2 mi NE 6.9 mph - N/A   Partly Cloudy
7:00 PM 43 °F - 31 °F 52% 29.65 in 25 mi NE 6.7 mph - -   Scattered Clouds
7:00 PM 42.8 °F 38.6 °F 32.0 °F 66% 29.62 in 6.2 mi NE 6.9 mph - N/A   Partly Cloudy
7:30 PM 44.6 °F 40.7 °F 32.0 °F 61% 29.62 in - NE 6.9 mph - N/A   Clear
8:00 PM 42.8 °F 39.3 °F 32.0 °F 66% 29.65 in - NNE 5.8 mph - N/A   Clear
8:30 PM 42.8 °F 38.6 °F 32.0 °F 66% 29.65 in 6.2 mi NNE 6.9 mph - N/A   Partly Cloudy
9:00 PM 44.6 °F 40.7 °F 32.0 °F 61% 29.65 in 6.2 mi NE 6.9 mph - N/A   Partly Cloudy
9:30 PM 42.8 °F 38.6 °F 32.0 °F 66% 29.65 in 6.2 mi NE 6.9 mph - N/A   Scattered Clouds
10:00 PM 42 °F - 32 °F 56% 29.68 in 25 mi West 2.2 mph - -   Overcast
10:00 PM 41.0 °F - 32.0 °F 70% 29.65 in 6.2 mi Variable 2.3 mph - N/A   Scattered Clouds
10:30 PM 42.8 °F 40.1 °F 32.0 °F 66% 29.68 in 6.2 mi NNW 4.6 mph - N/A   Scattered Clouds
11:00 PM 41.0 °F 38.0 °F 32.0 °F 70% 29.68 in 6.2 mi North 4.6 mph - N/A   Partly Cloudy
11:30 PM 41.0 °F 38.0 °F 32.0 °F 70% 29.68 in 6.2 mi North 4.6 mph - N/A   Partly Cloudy